,,,PA_Meas_PMT16A,,PR_Meas_QMR101_102,,RH_Meas_QMH101,,SR_Meas_QMS101,,TA_Meas_QMH101,,GenWind,,GenWind,
date,time,status,PA,status,PR,status,RH,status,SR,status,TA,status,DirAvg,status,SpdAvg,
2008-04-13, 00:00:05,VALID,1002.68,VALID,0,VALID,93.0495,VALID,0.100563,VALID,24.3088,VALID,216,VALID,0,
2008-04-13, 00:01:05,VALID,1002.67,VALID,0,VALID,93.0952,VALID,0,VALID,24.3088,VALID,216,VALID,0.0316406,
2008-04-13, 00:02:05,VALID,1002.68,VALID,0,VALID,93.1563,VALID,0,VALID,24.2894,VALID,216,VALID,0,
2008-04-13, 00:03:05,VALID,1002.71,VALID,0,VALID,93.2402,VALID,0,VALID,24.2699,VALID,216,VALID,0,
2008-04-13, 00:04:05,VALID,1002.73,VALID,0,VALID,93.3394,VALID,0,VALID,24.2699,VALID,216,VALID,0.00234375,
2008-04-13, 00:05:05,VALID,1002.72,VALID,0,VALID,93.4309,VALID,0,VALID,24.2699,VALID,216,VALID,0.110547,
2008-04-13, 00:06:05,VALID,1002.74,VALID,0,VALID,93.5148,VALID,0,VALID,24.2486,VALID,216,VALID,0,
2008-04-13, 00:07:05,VALID,1002.72,VALID,0,VALID,93.6445,VALID,0,VALID,24.2504,VALID,216,VALID,0,
2008-04-13, 00:08:05,VALID,1002.71,VALID,0,VALID,93.7055,VALID,0,VALID,24.2504,VALID,216,VALID,0.0699219,
2008-04-13, 00:09:05,VALID,1002.71,VALID,0,VALID,93.7208,VALID,0,VALID,24.2699,VALID,216,VALID,0,
2008-04-13, 00:10:05,VALID,1002.71,VALID,0,VALID,93.7666,VALID,0,VALID,24.2699,VALID,216,VALID,0,
2008-04-13, 00:11:05,VALID,1002.73,VALID,0,VALID,93.8276,VALID,0,VALID,24.2504,VALID,216,VALID,0,
2008-04-13, 00:12:05,VALID,1002.71,VALID,0,VALID,93.7971,VALID,0,VALID,24.2699,VALID,210,VALID,0.169531,
2008-04-13, 00:13:05,VALID,1002.75,VALID,0,VALID,93.7437,VALID,0.100563,VALID,24.2291,VALID,182,VALID,0.363672,
2008-04-13, 00:14:05,VALID,1002.73,VALID,0,VALID,93.7818,VALID,0.100563,VALID,24.2504,VALID,75,VALID,0.542578,
2008-04-13, 00:15:05,VALID,1002.8,VALID,0,VALID,93.8047,VALID,0,VALID,24.2291,VALID,57,VALID,0.478516,
2008-04-13, 00:16:05,VALID,1002.8,VALID,0,VALID,93.82,VALID,0,VALID,24.231,VALID,55,VALID,0.109375,
2008-04-13, 00:17:05,VALID,1002.77,VALID,0,VALID,93.8429,VALID,0,VALID,24.2115,VALID,56,VALID,0.219531,
2008-04-13, 00:18:05,VALID,1002.77,VALID,0,VALID,93.8963,VALID,0,VALID,24.1902,VALID,56,VALID,0,
2008-04-13, 00:19:05,VALID,1002.73,VALID,0,VALID,93.9802,VALID,0,VALID,24.231,VALID,56,VALID,0.236328,
2008-04-13, 00:20:05,VALID,1002.71,VALID,0,VALID,94.0183,VALID,0,VALID,24.231,VALID,56,VALID,0.346484,
2008-04-13, 00:21:05,VALID,1002.67,VALID,0,VALID,94.0488,VALID,0,VALID,24.2504,VALID,56,VALID,0.158594,
2008-04-13, 00:22:05,VALID,1002.6,VALID,0,VALID,94.0412,VALID,0,VALID,24.2504,VALID,56,VALID,0,
2008-04-13, 00:23:05,VALID,1002.56,VALID,0,VALID,94.1022,VALID,0.100563,VALID,24.2699,VALID,56,VALID,0,
2008-04-13, 00:24:05,VALID,1002.5,VALID,0,VALID,94.2167,VALID,0,VALID,24.2875,VALID,56,VALID,0.139844,
2008-04-13, 00:25:05,VALID,1002.47,VALID,0,VALID,94.2548,VALID,0,VALID,24.3283,VALID,56,VALID,0.167578,
2008-04-13, 00:26:05,VALID,1002.41,VALID,0,VALID,94.293,VALID,0,VALID,24.3673,VALID,56,VALID,0,
2008-04-13, 00:27:05,VALID,1002.39,VALID,0,VALID,94.0259,VALID,0,VALID,24.3654,VALID,56,VALID,0.193359,
2008-04-13, 00:28:05,VALID,1002.39,VALID,0,VALID,93.7666,VALID,0,VALID,24.4257,VALID,56,VALID,0.0109375,
2008-04-13, 00:29:05,VALID,1002.39,VALID,0,VALID,93.6521,VALID,0,VALID,24.4257,VALID,56,VALID,0.215625,
2008-04-13, 00:30:05,VALID,1002.45,VALID,0,VALID,93.5377,VALID,0,VALID,24.4646,VALID,56,VALID,0.142188,
2008-04-13, 00:31:05,VALID,1002.45,VALID,0,VALID,93.553,VALID,0,VALID,24.4646,VALID,56,VALID,0.153516,
2008-04-13, 00:32:05,VALID,1002.47,VALID,0,VALID,93.5072,VALID,0,VALID,24.4841,VALID,56,VALID,0,
2008-04-13, 00:33:05,VALID,1002.42,VALID,0,VALID,93.4919,VALID,0,VALID,24.4646,VALID,56,VALID,0,
2008-04-13, 00:34:05,VALID,1002.38,VALID,0,VALID,93.5072,VALID,0,VALID,24.4646,VALID,56,VALID,0,
2008-04-13, 00:35:05,VALID,1002.34,VALID,0,VALID,93.4767,VALID,0,VALID,24.4646,VALID,56,VALID,0,
2008-04-13, 00:36:05,VALID,1002.27,VALID,0,VALID,93.5072,VALID,0,VALID,24.4433,VALID,56,VALID,0,
2008-04-13, 00:37:05,VALID,1002.23,VALID,0,VALID,93.469,VALID,0,VALID,24.4646,VALID,56,VALID,0,
2008-04-13, 00:38:05,VALID,1002.23,VALID,0,VALID,93.4767,VALID,0,VALID,24.4451,VALID,56,VALID,0,
2008-04-13, 00:39:05,VALID,1002.22,VALID,0,VALID,93.5072,VALID,0,VALID,24.4257,VALID,56,VALID,0,
2008-04-13, 00:40:05,VALID,1002.22,VALID,0,VALID,93.553,VALID,0,VALID,24.4257,VALID,56,VALID,0,
2008-04-13, 00:41:05,VALID,1002.24,VALID,0,VALID,93.5377,VALID,0,VALID,24.4257,VALID,56,VALID,0,
2008-04-13, 00:42:05,VALID,1002.28,VALID,0,VALID,93.4462,VALID,0,VALID,24.4257,VALID,56,VALID,0,
2008-04-13, 00:43:05,VALID,1002.28,VALID,0,VALID,93.4385,VALID,0,VALID,24.4062,VALID,56,VALID,0,
2008-04-13, 00:44:05,VALID,1002.32,VALID,0,VALID,93.469,VALID,0,VALID,24.4062,VALID,56,VALID,0,
2008-04-13, 00:45:05,VALID,1002.32,VALID,0,VALID,93.5911,VALID,0,VALID,24.4275,VALID,56,VALID,0,
2008-04-13, 00:46:05,VALID,1002.31,VALID,0,VALID,93.614,VALID,0,VALID,24.4257,VALID,56,VALID,0,
2008-04-13, 00:47:05,VALID,1002.31,VALID,0,VALID,93.6979,VALID,0,VALID,24.4257,VALID,56,VALID,0,
2008-04-13, 00:48:05,VALID,1002.3,VALID,0,VALID,93.7437,VALID,0,VALID,24.4257,VALID,56,VALID,0,
2008-04-13, 00:49:05,VALID,1002.31,VALID,0,VALID,93.7666,VALID,0,VALID,24.4451,VALID,56,VALID,0,
2008-04-13, 00:50:05,VALID,1002.33,VALID,0,VALID,93.7437,VALID,0,VALID,24.4451,VALID,56,VALID,0,
2008-04-13, 00:51:05,VALID,1002.3,VALID,0,VALID,93.7818,VALID,0,VALID,24.4451,VALID,56,VALID,0.15,
2008-04-13, 00:52:05,VALID,1002.28,VALID,0,VALID,93.7971,VALID,0,VALID,24.4257,VALID,56,VALID,0.446875,
2008-04-13, 00:53:05,VALID,1002.3,VALID,0,VALID,93.8505,VALID,0,VALID,24.4665,VALID,40,VALID,0.667188,
2008-04-13, 00:54:05,VALID,1002.34,VALID,0,VALID,93.7895,VALID,0,VALID,24.4257,VALID,73,VALID,0.834375,
2008-04-13, 00:55:05,VALID,1002.44,VALID,0,VALID,93.8047,VALID,0,VALID,24.4257,VALID,107,VALID,1.58359,
2008-04-13, 00:56:05,VALID,1002.49,VALID,0,VALID,92.5536,VALID,0,VALID,24.3867,VALID,104,VALID,2.46172,
2008-04-13, 00:57:05,VALID,1002.49,VALID,0,VALID,90.5472,VALID,0,VALID,24.3867,VALID,121,VALID,2.65273,
2008-04-13, 00:58:05,VALID,1002.52,VALID,0,VALID,90.12,VALID,0,VALID,24.3867,VALID,107,VALID,1.63789,
2008-04-13, 00:59:05,VALID,1002.52,VALID,0,VALID,89.5097,VALID,0,VALID,24.3673,VALID,126,VALID,2.07305,
2008-04-13, 01:00:05,VALID,1002.5,VALID,0,VALID,88.8688,VALID,0,VALID,24.3478,VALID,114,VALID,2.76953,
2008-04-13, 01:01:05,VALID,1002.54,VALID,0,VALID,87.7321,VALID,0,VALID,24.2894,VALID,137,VALID,3.89844,
2008-04-13, 01:02:05,VALID,1002.56,VALID,0,VALID,87.3965,VALID,0,VALID,24.231,VALID,125,VALID,4.11953,
2008-04-13, 01:03:05,VALID,1002.53,VALID,0,VALID,87.5872,VALID,0,VALID,24.1726,VALID,120,VALID,3.86016,
2008-04-13, 01:04:05,VALID,1002.51,VALID,0,VALID,87.816,VALID,0,VALID,24.1336,VALID,126,VALID,2.52227,
2008-04-13, 01:05:04,VALID,1002.5,VALID,0,VALID,88.1899,VALID,0,VALID,24.0752,VALID,124,VALID,2.95117,
2008-04-13, 01:06:04,VALID,1002.48,VALID,0,VALID,88.5942,VALID,0,VALID,23.9779,VALID,132,VALID,2.48711,
2008-04-13, 01:07:04,VALID,1002.46,VALID,0,VALID,89.296,VALID,0,VALID,23.9,VALID,114,VALID,1.91719,
2008-04-13, 01:08:04,VALID,1002.46,VALID,0,VALID,90.0132,VALID,0,VALID,23.8416,VALID,119,VALID,2.36914,
2008-04-13, 01:09:04,VALID,1002.44,VALID,0,VALID,90.5243,VALID,0,VALID,23.7832,VALID,124,VALID,1.80117,
2008-04-13, 01:10:04,VALID,1002.42,VALID,0,VALID,91.127,VALID,0,VALID,23.7425,VALID,138,VALID,2.49844,
2008-04-13, 01:11:04,VALID,1002.42,VALID,0,VALID,91.4016,VALID,0,VALID,23.7248,VALID,109,VALID,2.5582,
2008-04-13, 01:12:04,VALID,1002.48,VALID,0,VALID,91.928,VALID,0,VALID,23.6859,VALID,131,VALID,1.92852,
2008-04-13, 01:13:04,VALID,1002.44,VALID,0,VALID,92.1721,VALID,0,VALID,23.5885,VALID,132,VALID,3.09531,
2008-04-13, 01:14:04,VALID,1002.43,VALID,0,VALID,92.9274,VALID,0,VALID,23.5089,VALID,143,VALID,2.10391,
2008-04-13, 01:15:04,VALID,1002.42,VALID,0.5,VALID,93.3775,VALID,0,VALID,23.4505,VALID,130,VALID,2.29219,
2008-04-13, 01:16:04,VALID,1002.38,VALID,0,VALID,93.8657,VALID,0,VALID,23.4116,VALID,146,VALID,2.03984,
2008-04-13, 01:17:04,VALID,1002.38,VALID,0.5,VALID,94.1328,VALID,0.100563,VALID,23.3744,VALID,141,VALID,1.54297,
2008-04-13, 01:18:04,VALID,1002.32,VALID,0,VALID,94.5829,VALID,0,VALID,23.3939,VALID,139,VALID,1.76172,
2008-04-13, 01:19:04,VALID,1002.31,VALID,0.5,VALID,94.766,VALID,0,VALID,23.355,VALID,142,VALID,2.64063,
2008-04-13, 01:20:04,VALID,1002.27,VALID,1,VALID,94.9948,VALID,0,VALID,23.3337,VALID,118,VALID,1.07187,
2008-04-13, 01:21:04,VALID,1002.24,VALID,1,VALID,95.1474,VALID,0,VALID,23.316,VALID,126,VALID,1.30352,
2008-04-13, 01:22:04,VALID,1002.22,VALID,1,VALID,95.2084,VALID,0,VALID,23.2771,VALID,105,VALID,1.84258,
2008-04-13, 01:23:04,VALID,1002.2,VALID,1.5,VALID,95.2771,VALID,0,VALID,23.178,VALID,126,VALID,2.41484,
2008-04-13, 01:24:04,VALID,1002.19,VALID,1,VALID,95.4907,VALID,0.100563,VALID,23.1391,VALID,117,VALID,1.95938,
2008-04-13, 01:25:04,VALID,1002.2,VALID,1.5,VALID,95.6356,VALID,0,VALID,23.1019,VALID,96,VALID,2.10117,
2008-04-13, 01:26:04,VALID,1002.2,VALID,1,VALID,95.7653,VALID,0.100563,VALID,23.0825,VALID,103,VALID,2.54023,
2008-04-13, 01:27:04,VALID,1002.2,VALID,1.5,VALID,95.8035,VALID,0.100563,VALID,23.0224,VALID,114,VALID,2.14805,
2008-04-13, 01:28:04,VALID,1002.23,VALID,1,VALID,95.895,VALID,0.100563,VALID,23.0241,VALID,80,VALID,1.79492,
2008-04-13, 01:29:04,VALID,1002.21,VALID,1.5,VALID,95.8721,VALID,0.100563,VALID,22.9251,VALID,71,VALID,1.47461,
2008-04-13, 01:30:04,VALID,1002.22,VALID,1.5,VALID,95.8569,VALID,0.100563,VALID,22.8667,VALID,53,VALID,1.92109,
2008-04-13, 01:31:04,VALID,1002.19,VALID,2,VALID,95.9332,VALID,0.100563,VALID,22.8295,VALID,87,VALID,1.30469,
2008-04-13, 01:32:04,VALID,1002.17,VALID,1,VALID,96.1086,VALID,0.100563,VALID,22.7888,VALID,85,VALID,1.38984,
2008-04-13, 01:33:04,VALID,1002.16,VALID,0.5,VALID,96.2231,VALID,0.100563,VALID,22.81,VALID,83,VALID,0.779297,
2008-04-13, 01:34:04,VALID,1002.19,VALID,0.5,VALID,96.307,VALID,0.100563,VALID,22.7888,VALID,74,VALID,0.735547,
2008-04-13, 01:35:04,VALID,1002.26,VALID,0.5,VALID,96.3756,VALID,0.100563,VALID,22.7888,VALID,112,VALID,0.978906,
2008-04-13, 01:36:04,VALID,1002.31,VALID,0,VALID,96.4367,VALID,0.100563,VALID,22.7888,VALID,120,VALID,1.04531,
2008-04-13, 01:37:04,VALID,1002.32,VALID,0.5,VALID,96.4825,VALID,0.100563,VALID,22.8295,VALID,115,VALID,0.451172,
2008-04-13, 01:38:04,VALID,1002.35,VALID,0,VALID,96.513,VALID,0,VALID,22.8312,VALID,120,VALID,0.734766,
2008-04-13, 01:39:04,VALID,1002.39,VALID,0.5,VALID,96.5435,VALID,0,VALID,22.81,VALID,126,VALID,1.11133,
2008-04-13, 01:40:04,VALID,1002.44,VALID,0,VALID,96.5664,VALID,0,VALID,22.8507,VALID,114,VALID,0.94375,
2008-04-13, 01:41:04,VALID,1002.49,VALID,0,VALID,96.5893,VALID,0,VALID,22.8489,VALID,111,VALID,1.05898,
2008-04-13, 01:42:04,VALID,1002.52,VALID,0,VALID,96.6198,VALID,0,VALID,22.8489,VALID,93,VALID,0.969922,
2008-04-13, 01:43:04,VALID,1002.51,VALID,0,VALID,96.6198,VALID,0,VALID,22.8684,VALID,126,VALID,0.475391,
2008-04-13, 01:44:04,VALID,1002.52,VALID,0,VALID,96.6427,VALID,0,VALID,22.8684,VALID,95,VALID,0.914063,
2008-04-13, 01:45:04,VALID,1002.55,VALID,0,VALID,96.6655,VALID,0.100563,VALID,22.8472,VALID,104,VALID,0.661719,
2008-04-13, 01:46:04,VALID,1002.57,VALID,0,VALID,96.6732,VALID,0,VALID,22.8879,VALID,104,VALID,0.414063,
2008-04-13, 01:47:04,VALID,1002.57,VALID,0,VALID,96.6732,VALID,0,VALID,22.8684,VALID,101,VALID,0.586328,
2008-04-13, 01:48:04,VALID,1002.57,VALID,0,VALID,96.6961,VALID,0,VALID,22.8684,VALID,107,VALID,0.627734,
2008-04-13, 01:49:04,VALID,1002.58,VALID,0,VALID,96.7037,VALID,0,VALID,22.8879,VALID,121,VALID,0.801562,
2008-04-13, 01:50:04,VALID,1002.51,VALID,0.5,VALID,96.7189,VALID,0,VALID,22.8667,VALID,106,VALID,0.968359,
2008-04-13, 01:51:04,VALID,1002.5,VALID,0,VALID,96.7571,VALID,0,VALID,22.8861,VALID,114,VALID,0.512109,
2008-04-13, 01:52:04,VALID,1002.46,VALID,0,VALID,96.7418,VALID,0,VALID,22.9285,VALID,121,VALID,1.32695,
2008-04-13, 01:53:04,VALID,1002.45,VALID,0,VALID,96.78,VALID,0,VALID,22.9268,VALID,123,VALID,1.92188,
2008-04-13, 01:54:04,VALID,1002.45,VALID,0,VALID,96.8029,VALID,0,VALID,22.9657,VALID,123,VALID,1.55391,
2008-04-13, 01:55:04,VALID,1002.38,VALID,0,VALID,96.7952,VALID,0,VALID,22.9852,VALID,134,VALID,0.934375,
2008-04-13, 01:56:04,VALID,1002.33,VALID,0,VALID,96.7876,VALID,0,VALID,22.9852,VALID,121,VALID,1.43789,
2008-04-13, 01:57:04,VALID,1002.33,VALID,0,VALID,96.8181,VALID,0,VALID,23.0046,VALID,137,VALID,1.29531,
2008-04-13, 01:58:04,VALID,1002.33,VALID,0.5,VALID,96.8258,VALID,0,VALID,23.0046,VALID,144,VALID,2.26367,
2008-04-13, 01:59:04,VALID,1002.3,VALID,0,VALID,96.8105,VALID,0,VALID,23.0224,VALID,133,VALID,1.50703,
2008-04-13, 02:00:04,VALID,1002.26,VALID,0,VALID,96.7876,VALID,0,VALID,23.0029,VALID,128,VALID,1.95234,
2008-04-13, 02:01:04,VALID,1002.26,VALID,0,VALID,96.7876,VALID,0,VALID,23.0029,VALID,142,VALID,2.27461,
2008-04-13, 02:02:04,VALID,1002.22,VALID,0,VALID,96.78,VALID,0,VALID,23.0241,VALID,153,VALID,2.29375,
2008-04-13, 02:03:04,VALID,1002.21,VALID,0,VALID,96.7723,VALID,0,VALID,23.0241,VALID,132,VALID,1.6,
2008-04-13, 02:04:04,VALID,1002.19,VALID,0,VALID,96.7723,VALID,0,VALID,23.0436,VALID,151,VALID,1.76367,
2008-04-13, 02:05:04,VALID,1002.17,VALID,0,VALID,96.7495,VALID,0,VALID,23.0436,VALID,153,VALID,0.688672,
2008-04-13, 02:06:04,VALID,1002.13,VALID,0.5,VALID,96.8029,VALID,0,VALID,23.063,VALID,129,VALID,0.648828,
2008-04-13, 02:07:04,VALID,1002.06,VALID,0,VALID,96.8029,VALID,0,VALID,23.063,VALID,128,VALID,1.1168,
2008-04-13, 02:08:04,VALID,1002.06,VALID,0,VALID,96.8029,VALID,0,VALID,23.063,VALID,82,VALID,1.23633,
2008-04-13, 02:09:04,VALID,1002.05,VALID,0,VALID,96.8105,VALID,0,VALID,23.0825,VALID,100,VALID,0.990234,
2008-04-13, 02:10:04,VALID,1002.08,VALID,0,VALID,96.8258,VALID,0,VALID,23.0825,VALID,77,VALID,1.24336,
2008-04-13, 02:11:04,VALID,1002.08,VALID,0.5,VALID,96.8258,VALID,0,VALID,23.1019,VALID,65,VALID,1.11602,
2008-04-13, 02:12:04,VALID,1002.07,VALID,0,VALID,96.7952,VALID,0,VALID,23.1019,VALID,78,VALID,1.21289,
2008-04-13, 02:13:04,VALID,1002.06,VALID,0,VALID,96.8105,VALID,0,VALID,23.0807,VALID,58,VALID,0.383203,
2008-04-13, 02:14:04,VALID,1002.05,VALID,0,VALID,96.8334,VALID,0,VALID,23.1019,VALID,54,VALID,0.432422,
2008-04-13, 02:15:04,VALID,1001.97,VALID,0,VALID,96.8563,VALID,0,VALID,23.1214,VALID,73,VALID,2.04648,
2008-04-13, 02:16:04,VALID,1001.96,VALID,0,VALID,96.8715,VALID,0,VALID,23.1603,VALID,82,VALID,0.854297,
2008-04-13, 02:17:04,VALID,1002.01,VALID,0,VALID,96.8486,VALID,0,VALID,23.1603,VALID,90,VALID,0.765234,
2008-04-13, 02:18:04,VALID,1001.97,VALID,0,VALID,96.8258,VALID,0,VALID,23.1621,VALID,106,VALID,0.620313,
2008-04-13, 02:19:04,VALID,1001.98,VALID,0,VALID,96.78,VALID,0,VALID,23.1019,VALID,91,VALID,1.21563,
2008-04-13, 02:20:04,VALID,1001.98,VALID,0,VALID,96.7876,VALID,0,VALID,23.1037,VALID,104,VALID,0.528516,
2008-04-13, 02:21:04,VALID,1001.99,VALID,0.5,VALID,96.7952,VALID,0,VALID,23.0825,VALID,56,VALID,0.548828,
2008-04-13, 02:22:04,VALID,1002.01,VALID,0,VALID,96.7647,VALID,0.100563,VALID,23.063,VALID,68,VALID,1.06172,
2008-04-13, 02:23:04,VALID,1002.01,VALID,0,VALID,96.78,VALID,0,VALID,23.0436,VALID,94,VALID,0.727344,
2008-04-13, 02:24:04,VALID,1001.97,VALID,0,VALID,96.78,VALID,0,VALID,23.0241,VALID,48,VALID,0.584766,
2008-04-13, 02:25:04,VALID,1001.94,VALID,0,VALID,96.8563,VALID,0,VALID,23.0436,VALID,7,VALID,0.575781,
2008-04-13, 02:26:04,VALID,1001.89,VALID,0,VALID,96.8486,VALID,0,VALID,23.0241,VALID,25,VALID,0.496875,
2008-04-13, 02:27:04,VALID,1001.92,VALID,0,VALID,96.8563,VALID,0,VALID,23.0436,VALID,42,VALID,0.342578,
2008-04-13, 02:28:04,VALID,1001.88,VALID,0,VALID,96.8486,VALID,0,VALID,23.0436,VALID,53,VALID,0.416016,
2008-04-13, 02:29:04,VALID,1001.82,VALID,0,VALID,96.7952,VALID,0,VALID,23.0241,VALID,351,VALID,1.00039,
2008-04-13, 02:30:04,VALID,1001.84,VALID,0,VALID,96.7266,VALID,0,VALID,22.9463,VALID,355,VALID,1.52734,
2008-04-13, 02:31:04,VALID,1001.81,VALID,0,VALID,96.7113,VALID,0,VALID,22.9073,VALID,14,VALID,1.24805,
2008-04-13, 02:32:04,VALID,1001.77,VALID,0,VALID,96.6732,VALID,0,VALID,22.8684,VALID,11,VALID,0.697656,
2008-04-13, 02:33:04,VALID,1001.76,VALID,0,VALID,96.7571,VALID,0,VALID,22.8684,VALID,13,VALID,0.311328,
2008-04-13, 02:34:04,VALID,1001.78,VALID,0,VALID,96.7647,VALID,0,VALID,22.8701,VALID,39,VALID,0.828516,
2008-04-13, 02:35:04,VALID,1001.79,VALID,0,VALID,96.8181,VALID,0,VALID,22.8684,VALID,6,VALID,0.469531,
2008-04-13, 02:36:04,VALID,1001.8,VALID,0,VALID,96.8029,VALID,0,VALID,22.8489,VALID,354,VALID,0.751172,
2008-04-13, 02:37:04,VALID,1001.78,VALID,0,VALID,96.8181,VALID,0,VALID,22.8701,VALID,9,VALID,0.530469,
2008-04-13, 02:38:04,VALID,1001.78,VALID,0,VALID,96.8715,VALID,0,VALID,22.8684,VALID,342,VALID,1.15,
2008-04-13, 02:39:04,VALID,1001.76,VALID,0,VALID,96.902,VALID,0,VALID,22.9073,VALID,346,VALID,0.940234,
2008-04-13, 02:40:04,VALID,1001.74,VALID,0,VALID,96.902,VALID,0,VALID,22.9268,VALID,353,VALID,0.170312,
2008-04-13, 02:41:04,VALID,1001.76,VALID,0,VALID,96.9173,VALID,0,VALID,22.9463,VALID,293,VALID,0.193359,
2008-04-13, 02:42:04,VALID,1001.73,VALID,0,VALID,96.9402,VALID,0,VALID,22.9657,VALID,293,VALID,0.292969,
2008-04-13, 02:43:04,VALID,1001.76,VALID,0,VALID,96.9402,VALID,0,VALID,23.0046,VALID,338,VALID,0.309766,
2008-04-13, 02:44:04,VALID,1001.74,VALID,0,VALID,96.9631,VALID,0,VALID,23.0453,VALID,358,VALID,0.273438,
2008-04-13, 02:45:04,VALID,1001.69,VALID,0,VALID,96.9631,VALID,0,VALID,23.0436,VALID,298,VALID,0.922656,
2008-04-13, 02:46:04,VALID,1001.69,VALID,0,VALID,96.9478,VALID,0,VALID,23.0825,VALID,6,VALID,0.0597656,
2008-04-13, 02:47:04,VALID,1001.68,VALID,0,VALID,96.9097,VALID,0,VALID,23.1037,VALID,301,VALID,0.409766,
2008-04-13, 02:48:04,VALID,1001.67,VALID,0,VALID,96.9478,VALID,0,VALID,23.0825,VALID,358,VALID,1.01172,
2008-04-13, 02:49:04,VALID,1001.67,VALID,0,VALID,96.9631,VALID,0,VALID,23.1019,VALID,321,VALID,0.229687,
2008-04-13, 02:50:04,VALID,1001.68,VALID,0,VALID,96.9402,VALID,0,VALID,23.1232,VALID,241,VALID,0.502734,
2008-04-13, 02:51:04,VALID,1001.65,VALID,0,VALID,96.9173,VALID,0,VALID,23.1019,VALID,236,VALID,0.322656,
2008-04-13, 02:52:04,VALID,1001.68,VALID,0,VALID,96.8868,VALID,0,VALID,23.1232,VALID,235,VALID,0.297266,
2008-04-13, 02:53:04,VALID,1001.65,VALID,0,VALID,96.902,VALID,0.100563,VALID,23.0807,VALID,249,VALID,0.527344,
2008-04-13, 02:54:04,VALID,1001.6,VALID,0,VALID,96.9097,VALID,0.100563,VALID,23.0807,VALID,266,VALID,0.288281,
2008-04-13, 02:55:04,VALID,1001.59,VALID,0,VALID,96.8944,VALID,0.100563,VALID,23.0807,VALID,251,VALID,0.273828,
2008-04-13, 02:56:04,VALID,1001.6,VALID,0,VALID,96.9249,VALID,0.100563,VALID,23.0807,VALID,253,VALID,0.0242187,
2008-04-13, 02:57:04,VALID,1001.6,VALID,0,VALID,96.9402,VALID,0,VALID,23.0807,VALID,288,VALID,0.388281,
2008-04-13, 02:58:04,VALID,1001.57,VALID,0,VALID,96.9631,VALID,0.100563,VALID,23.1197,VALID,288,VALID,0.0933594,
2008-04-13, 02:59:04,VALID,1001.53,VALID,0,VALID,96.9402,VALID,0.100563,VALID,23.1002,VALID,288,VALID,0.0410156,
2008-04-13, 03:00:04,VALID,1001.52,VALID,0,VALID,96.9478,VALID,0.100563,VALID,23.1197,VALID,288,VALID,0,
2008-04-13, 03:01:04,VALID,1001.5,VALID,0,VALID,96.9402,VALID,0.100563,VALID,23.1409,VALID,288,VALID,0.240234,
2008-04-13, 03:02:04,VALID,1001.48,VALID,0,VALID,96.9478,VALID,0.100563,VALID,23.1409,VALID,289,VALID,0.391016,
2008-04-13, 03:03:04,VALID,1001.48,VALID,0.5,VALID,96.9326,VALID,0,VALID,23.1197,VALID,296,VALID,0.585938,
2008-04-13, 03:04:04,VALID,1001.45,VALID,0,VALID,96.9326,VALID,0.100563,VALID,23.1214,VALID,342,VALID,0.548047,
2008-04-13, 03:05:04,VALID,1001.46,VALID,0,VALID,96.9173,VALID,0.100563,VALID,23.0613,VALID,5,VALID,0.615234,
2008-04-13, 03:06:04,VALID,1001.45,VALID,0,VALID,96.9249,VALID,0,VALID,23.0613,VALID,5,VALID,0.532812,
2008-04-13, 03:07:04,VALID,1001.44,VALID,0,VALID,96.9173,VALID,0.100563,VALID,23.0418,VALID,3,VALID,0.420312,
2008-04-13, 03:08:04,VALID,1001.41,VALID,0,VALID,96.9249,VALID,0,VALID,23.0436,VALID,357,VALID,0.499219,
2008-04-13, 03:09:04,VALID,1001.42,VALID,0,VALID,96.9326,VALID,0,VALID,23.0436,VALID,357,VALID,0.241797,
2008-04-13, 03:10:04,VALID,1001.43,VALID,0,VALID,96.9478,VALID,0,VALID,23.0241,VALID,357,VALID,0.169531,
2008-04-13, 03:11:04,VALID,1001.41,VALID,0,VALID,96.9402,VALID,0,VALID,23.0241,VALID,357,VALID,0.491797,
2008-04-13, 03:12:04,VALID,1001.37,VALID,0,VALID,96.9478,VALID,0,VALID,23.0241,VALID,359,VALID,0.163281,
2008-04-13, 03:13:04,VALID,1001.37,VALID,0,VALID,96.9478,VALID,0,VALID,23.0241,VALID,359,VALID,0.124609,
2008-04-13, 03:14:04,VALID,1001.36,VALID,0,VALID,96.9707,VALID,0,VALID,23.0453,VALID,304,VALID,0.405469,
2008-04-13, 03:15:04,VALID,1001.36,VALID,0,VALID,96.9783,VALID,0,VALID,23.063,VALID,323,VALID,0.117578,
2008-04-13, 03:16:04,VALID,1001.34,VALID,0,VALID,96.986,VALID,0,VALID,23.0842,VALID,350,VALID,0.0199219,
2008-04-13, 03:17:04,VALID,1001.33,VALID,0,VALID,97.0012,VALID,0,VALID,23.1037,VALID,351,VALID,0.00351562,
2008-04-13, 03:18:04,VALID,1001.3,VALID,0.5,VALID,96.9783,VALID,0,VALID,23.0842,VALID,323,VALID,0.2125,
2008-04-13, 03:19:04,VALID,1001.31,VALID,0,VALID,96.9554,VALID,0,VALID,23.0648,VALID,300,VALID,0.547656,
2008-04-13, 03:20:04,VALID,1001.27,VALID,0,VALID,96.9783,VALID,0,VALID,23.0436,VALID,288,VALID,0.065625,
2008-04-13, 03:21:04,VALID,1001.25,VALID,0,VALID,96.9783,VALID,0,VALID,23.063,VALID,288,VALID,0.0675781,
2008-04-13, 03:22:04,VALID,1001.26,VALID,0,VALID,96.986,VALID,0,VALID,23.0648,VALID,289,VALID,0.223828,
2008-04-13, 03:23:04,VALID,1001.2,VALID,0,VALID,97.0012,VALID,0,VALID,23.0648,VALID,355,VALID,0.421484,
2008-04-13, 03:24:04,VALID,1001.2,VALID,0,VALID,96.986,VALID,0,VALID,23.0436,VALID,357,VALID,0.367188,
2008-04-13, 03:25:04,VALID,1001.18,VALID,0,VALID,96.986,VALID,0,VALID,23.0241,VALID,358,VALID,0.375391,
2008-04-13, 03:26:04,VALID,1001.18,VALID,0,VALID,96.986,VALID,0,VALID,23.0258,VALID,358,VALID,0.433203,
2008-04-13, 03:27:04,VALID,1001.2,VALID,0,VALID,96.9631,VALID,0,VALID,23.0046,VALID,356,VALID,0.642578,
2008-04-13, 03:28:04,VALID,1001.19,VALID,0,VALID,96.9783,VALID,0,VALID,23.0046,VALID,356,VALID,0.406641,
2008-04-13, 03:29:04,VALID,1001.22,VALID,0,VALID,96.986,VALID,0,VALID,23.0046,VALID,356,VALID,0.653125,
2008-04-13, 03:30:04,VALID,1001.21,VALID,0,VALID,96.9936,VALID,0,VALID,22.9852,VALID,358,VALID,0.630078,
2008-04-13, 03:31:04,VALID,1001.22,VALID,0,VALID,96.9936,VALID,0,VALID,22.9852,VALID,360,VALID,0.587109,
2008-04-13, 03:32:04,VALID,1001.24,VALID,0,VALID,96.986,VALID,0,VALID,22.9657,VALID,1,VALID,0.523438,
2008-04-13, 03:33:04,VALID,1001.25,VALID,0,VALID,96.9631,VALID,0,VALID,22.9675,VALID,2,VALID,0.714063,
2008-04-13, 03:34:04,VALID,1001.26,VALID,0,VALID,97.0012,VALID,0,VALID,22.9463,VALID,1,VALID,0.560156,
2008-04-13, 03:35:04,VALID,1001.24,VALID,0,VALID,96.9783,VALID,0,VALID,22.9073,VALID,1,VALID,0.400391,
2008-04-13, 03:36:04,VALID,1001.24,VALID,0,VALID,96.9783,VALID,0,VALID,22.9073,VALID,351,VALID,0.633594,
2008-04-13, 03:37:04,VALID,1001.24,VALID,0,VALID,97.0088,VALID,0,VALID,22.8879,VALID,356,VALID,0.21875,
2008-04-13, 03:38:04,VALID,1001.22,VALID,0,VALID,96.9936,VALID,0,VALID,22.9073,VALID,356,VALID,0.0238281,
2008-04-13, 03:39:04,VALID,1001.22,VALID,0,VALID,97.0241,VALID,0,VALID,22.9073,VALID,356,VALID,0.0917969,
2008-04-13, 03:40:04,VALID,1001.2,VALID,0,VALID,97.0241,VALID,0,VALID,22.9073,VALID,289,VALID,0.2375,
2008-04-13, 03:41:04,VALID,1001.2,VALID,0,VALID,97.0241,VALID,0,VALID,22.9268,VALID,298,VALID,0.236328,
2008-04-13, 03:42:04,VALID,1001.19,VALID,0,VALID,97.0165,VALID,0,VALID,22.9056,VALID,300,VALID,0.470703,
2008-04-13, 03:43:04,VALID,1001.24,VALID,0,VALID,97.0165,VALID,0,VALID,22.9268,VALID,303,VALID,0.430078,
2008-04-13, 03:44:04,VALID,1001.25,VALID,0,VALID,97.0165,VALID,0,VALID,22.9073,VALID,302,VALID,0.188672,
2008-04-13, 03:45:04,VALID,1001.28,VALID,0,VALID,97.0394,VALID,0,VALID,22.9073,VALID,302,VALID,0.180078,